[[{"header":{"parameterUnit":"m.s-1","parameterCategory":1,"la1":30.2991,"la2":30.254,"lo1":-89.0895,"lo2":-89.0444,"dy":0.0017,"dx":0.0017,"nx":28,"ny":28,"refTime":"2024-04-22T03:00:00:Z","depth":0,"parameterNumber":2,"parameterNumberName":"U-component_of_WINDS"},"data":[0,0,0,0,0,0,0,0,0,0,0,0,0,0,0,0,0,0,0,0,0,0,0,0,0,0,0,0,0,0,0,0,0,0,0,0,0,0,0,0,0,0,0,0,0,0,0,0,0,0,0,0,0,0,0,0,0,0,-1.162,-1.162,0,-1.1638,-1.1638,-1.1638,-1.1622,-1.1622,-1.1621,-1.1621,-1.1638,-1.1639,-1.164,0,0,0,0,0,0,0,0,0,0,0,0,0,-1.1572,-1.1573,-1.162,-1.162,-1.1621,-1.1638,-1.1638,-1.1638,-1.1623,-1.1622,-1.1621,-1.162,-1.1638,-1.1639,-1.164,0,0,0,0,0,0,0,0,0,0,0,0,0,-1.1591,-1.1573,-1.162,-1.1615,-1.1615,-1.1638,-1.1638,-1.1638,-1.1623,-1.1622,-1.1621,-1.162,-1.1637,-1.1639,-1.164,-1.1669,0,0,-1.1645,-1.1646,0,0,0,0,0,0,0,0,-1.159,-1.1593,-1.1615,-1.1615,-1.1615,-1.1627,-1.1627,-1.1649,-1.1623,-1.162,-1.162,-1.1619,-1.1635,-1.1637,-1.1642,-1.167,-1.1671,-1.1645,-1.1646,-1.1647,-1.1647,0,0,0,0,0,0,0,-1.1589,-1.1592,-1.1627,-1.1616,-1.1615,-1.1611,-1.1613,-1.1631,-1.1632,-1.162,-1.1619,-1.1621,-1.1635,-1.1641,-1.1642,-1.1671,-1.1645,-1.1647,-1.1648,-1.1648,-1.1723,-1.1724,0,0,0,0,0,0,-1.1588,-1.1591,-1.1626,-1.1628,-1.16,-1.1613,-1.1615,-1.1624,-1.1632,-1.1632,-1.1622,-1.162,-1.1638,-1.164,-1.1643,-1.1677,-1.1647,-1.1648,-1.1649,-1.1722,-1.1723,-1.1724,0,0,0,0,0,0,-1.1587,-1.1592,-1.1626,-1.1609,-1.1613,-1.1615,-1.1625,-1.1625,-1.1631,-1.1634,-1.1634,-1.1628,-1.1638,-1.1641,-1.1663,-1.1677,-1.1649,-1.165,-1.172,-1.1722,-1.1723,-1.1745,0,0,0,0,0,0,-1.1586,-1.1591,-1.1603,-1.161,-1.1614,-1.1646,-1.1626,-1.1626,-1.1634,-1.1632,-1.1639,-1.164,-1.1637,-1.166,-1.1664,-1.1679,-1.1652,-1.1719,-1.1721,-1.1723,-1.1743,-1.1747,-1.1751,0,0,0,0,0,-1.1584,-1.1608,-1.1603,-1.1608,-1.1628,-1.1647,-1.1649,-1.1646,-1.1635,-1.1646,-1.1648,-1.1639,-1.1675,-1.1663,-1.1667,-1.1682,-1.1718,-1.1721,-1.1723,-1.1741,-1.1746,-1.175,0,0,0,0,0,0,-1.1603,-1.1609,-1.1604,-1.1631,-1.1638,-1.1644,-1.1658,-1.1652,-1.1662,-1.166,-1.1655,-1.1657,-1.168,-1.1683,-1.167,-1.171,-1.1695,-1.1698,-1.1707,-1.1712,-1.1716,-1.1714,-1.1653,0,0,0,0,0,-1.161,-1.1625,-1.1629,-1.1652,-1.1656,-1.1656,-1.1664,-1.1661,-1.1669,-1.1672,-1.1675,-1.1683,-1.1695,-1.1704,-1.1716,-1.1743,-1.1744,-1.1756,-1.176,-1.1763,-1.1766,-1.1779,-1.1784,-1.1732,-1.1731,-1.1731,0,0,-1.1625,-1.163,-1.164,-1.1656,-1.1662,-1.1676,-1.1659,-1.1676,-1.1686,-1.1674,-1.1695,-1.1698,-1.1706,-1.173,-1.1741,-1.1734,-1.178,-1.1766,-1.1768,-1.1769,-1.1782,-1.1787,-1.1792,-1.1733,-1.1733,-1.1733,0,0,-1.166,-1.1666,-1.1685,-1.1691,-1.1699,-1.1699,-1.1704,-1.1711,-1.1712,-1.1733,-1.1724,-1.1736,-1.1759,-1.1764,-1.177,-1.1807,-1.1799,-1.1811,-1.183,-1.1844,-1.1848,-1.1852,-1.1864,-1.1869,-1.1813,-1.1813,-1.1813,0,-1.1678,-1.17,-1.1696,-1.1713,-1.172,-1.171,-1.1729,-1.1735,-1.1747,-1.1752,-1.1743,-1.177,-1.1775,-1.18,-1.1809,-1.1815,-1.1819,-1.181,-1.1848,-1.1851,-1.1855,-1.1866,-1.1871,-1.1815,-1.1815,-1.1814,-1.1814,0,-1.172,-1.1736,-1.175,-1.1762,-1.1771,-1.1789,-1.1788,-1.1797,-1.1793,-1.1794,-1.1814,-1.182,-1.1832,-1.1838,-1.1834,-1.1863,-1.1858,-1.1849,-1.1833,-1.1861,-1.1872,-1.1877,-1.1817,-1.1816,-1.1816,-1.1815,0,0,-1.1767,-1.1777,-1.1782,-1.1787,-1.1795,-1.1807,-1.1824,-1.1836,-1.1844,-1.1853,-1.1867,-1.1885,-1.1877,-1.1884,-1.188,-1.1892,-1.192,-1.1882,-1.1882,-1.1888,-1.1951,-1.1957,-1.1962,-1.1915,-1.1916,-1.1917,-1.195,0,-1.1802,-1.1832,-1.1829,-1.1858,-1.1871,-1.1862,-1.1877,-1.1883,-1.1884,-1.1895,-1.1896,-1.191,-1.1898,-1.1901,-1.1913,-1.1914,-1.1932,-1.1912,-1.1927,-1.1928,-1.1925,-1.1968,-1.1975,-1.2006,-1.1954,-1.1955,-1.1955,0,-1.1847,-1.1856,-1.1886,-1.1892,-1.1898,-1.1911,-1.1922,-1.1933,-1.194,-1.194,-1.1947,-1.1941,-1.1958,-1.1942,-1.1965,-1.1951,-1.1957,-1.1959,-1.196,-1.1961,-1.1943,-1.197,-1.2016,-1.2021,-1.1962,-1.1962,-1.1961,0,-1.1877,-1.1898,-1.1918,-1.1923,-1.193,-1.194,-1.1943,-1.1949,-1.1956,-1.1966,-1.197,-1.1981,-1.1987,-1.1996,-1.1993,-1.1982,-1.2016,-1.2,-1.2016,-1.2016,-1.2023,-1.2023,-1.2071,-1.2028,-1.2028,-1.2028,-1.2028,0,-1.1916,-1.1934,-1.1932,-1.1945,-1.1965,-1.1961,-1.1981,-1.1983,-1.1988,-1.2001,-1.1993,-1.2005,-1.2001,-1.2012,-1.201,-1.2029,-1.2032,-1.2032,-1.2031,-1.2032,-1.2032,-1.2036,-1.2033,-1.2029,-1.2029,-1.2029,-1.2028,0,-1.1953,-1.1953,-1.1974,-1.1979,-1.1981,-1.1995,-1.1999,-1.2011,-1.2011,-1.2027,-1.203,-1.203,-1.2043,-1.2041,-1.2056,-1.2055,-1.2077,-1.2074,-1.2075,-1.2074,-1.209,-1.2088,-1.2141,-1.2148,-1.2102,-1.2102,-1.2102,0,-1.1978,-1.1992,-1.1998,-1.2006,-1.201,-1.2023,-1.203,-1.2026,-1.2034,-1.2043,-1.2053,-1.2065,-1.2075,-1.2096,-1.2097,-1.2108,-1.2104,-1.2122,-1.2106,-1.2106,-1.2104,-1.2103,-1.2104,-1.2125,-1.2126,-1.2126,-1.2127,0,-1.2021,-1.202,-1.2031,-1.2042,-1.2051,-1.2059,-1.2066,-1.2073,-1.207,-1.2079,-1.2092,-1.21,-1.2114,-1.2126,-1.2136,-1.2139,-1.2132,-1.2132,-1.2136,-1.2137,-1.2137,-1.2136,-1.2083,-1.2131,-1.213,-1.213,-1.213,-1.213,-1.2052,-1.2064,-1.207,-1.2082,-1.2088,-1.2095,-1.2105,-1.2107,-1.2118,-1.2129,-1.2126,-1.2141,-1.2147,-1.216,-1.2164,-1.2175,-1.2168,-1.2174,-1.2176,-1.2177,-1.2178,-1.2135,-1.2177,-1.2176,-1.2176,-1.2176,-1.2176,0,-1.2094,-1.2098,-1.2109,-1.212,-1.2129,-1.2122,-1.213,-1.2138,-1.2151,-1.2157,-1.2167,-1.2181,-1.2193,-1.2195,-1.2205,-1.2214,-1.2211,-1.2217,-1.2216,-1.2216,-1.2184,-1.2179,-1.2219,-1.2219,-1.2219,-1.2219,-1.2219,-1.2219,-1.2118,-1.2137,-1.2136,-1.2157,-1.2161,-1.2175,-1.218,-1.2186,-1.2191,-1.2207,-1.2217,-1.2218,-1.2222,-1.2233,-1.2243,-1.2243,-1.2247,-1.2254,-1.2253,-1.2223,-1.2219,-1.2215,-1.221,-1.2255,-1.2255,-1.2284,-1.2285,-1.2285]},{"header":{"parameterUnit":"m.s-1","parameterCategory":1,"la1":30.2991,"la2":30.254,"lo1":-89.0895,"lo2":-89.0444,"dy":0.0017,"dx":0.0017,"nx":28,"ny":28,"refTime":"2024-04-22T03:00:00:Z","depth":0,"parameterNumber":3,"parameterNumberName":"V-component_of_WINDS"},"data":[0,0,0,0,0,0,0,0,0,0,0,0,0,0,0,0,0,0,0,0,0,0,0,0,0,0,0,0,0,0,0,0,0,0,0,0,0,0,0,0,0,0,0,0,0,0,0,0,0,0,0,0,0,0,0,0,0,0,-3.2503,-3.2504,0,-3.2576,-3.2577,-3.2578,-3.2581,-3.2581,-3.258,-3.2579,-3.2649,-3.2652,-3.2654,0,0,0,0,0,0,0,0,0,0,0,0,0,-3.2364,-3.2366,-3.2503,-3.2504,-3.2505,-3.2576,-3.2577,-3.2578,-3.2582,-3.258,-3.2579,-3.2578,-3.2648,-3.2651,-3.2655,0,0,0,0,0,0,0,0,0,0,0,0,0,-3.2429,-3.2367,-3.2503,-3.2516,-3.2517,-3.2576,-3.2577,-3.2578,-3.2582,-3.258,-3.2579,-3.2578,-3.2647,-3.2651,-3.2655,-3.2705,0,0,-3.2667,-3.2669,0,0,0,0,0,0,0,0,-3.2425,-3.2434,-3.2513,-3.2515,-3.2517,-3.2569,-3.2554,-3.2621,-3.2582,-3.2557,-3.2579,-3.2577,-3.2623,-3.2629,-3.2645,-3.2708,-3.2711,-3.2668,-3.267,-3.2672,-3.2673,0,0,0,0,0,0,0,-3.2421,-3.2431,-3.2532,-3.2514,-3.2517,-3.2516,-3.2524,-3.2566,-3.2596,-3.2559,-3.256,-3.2568,-3.2624,-3.2641,-3.2647,-3.2712,-3.2668,-3.2671,-3.2674,-3.2675,-3.282,-3.2821,0,0,0,0,0,0,-3.2414,-3.2427,-3.253,-3.2534,-3.2467,-3.252,-3.2529,-3.2553,-3.2596,-3.2601,-3.2569,-3.2568,-3.2635,-3.2642,-3.2649,-3.271,-3.2672,-3.2675,-3.2678,-3.2818,-3.282,-3.2821,0,0,0,0,0,0,-3.2411,-3.2424,-3.2527,-3.2481,-3.2494,-3.2524,-3.2551,-3.2555,-3.2573,-3.2604,-3.2608,-3.2582,-3.2635,-3.2644,-3.2691,-3.2713,-3.2677,-3.2681,-3.2816,-3.2819,-3.2821,-3.2832,0,0,0,0,0,0,-3.2407,-3.2422,-3.2442,-3.2481,-3.2497,-3.2569,-3.2552,-3.2558,-3.258,-3.2579,-3.2617,-3.2622,-3.2634,-3.2685,-3.2695,-3.2718,-3.2684,-3.2815,-3.2817,-3.282,-3.283,-3.2835,-3.2839,0,0,0,0,0,-3.2402,-3.2442,-3.2443,-3.2456,-3.2522,-3.257,-3.2578,-3.2593,-3.2582,-3.2602,-3.2622,-3.262,-3.2709,-3.269,-3.2701,-3.2725,-3.2813,-3.2817,-3.282,-3.2828,-3.2834,-3.2839,0,0,0,0,0,0,-3.2403,-3.2447,-3.2449,-3.2503,-3.2533,-3.257,-3.2596,-3.2599,-3.2631,-3.2629,-3.2645,-3.2653,-3.27,-3.2718,-3.2696,-3.2776,-3.276,-3.2765,-3.2762,-3.2768,-3.2772,-3.2766,-3.2687,0,0,0,0,0,-3.241,-3.2446,-3.2482,-3.2526,-3.2541,-3.2566,-3.2587,-3.2596,-3.2627,-3.2639,-3.2662,-3.2691,-3.2726,-3.2748,-3.2781,-3.2833,-3.2841,-3.2855,-3.2859,-3.2863,-3.2867,-3.2895,-3.2902,-3.2832,-3.2832,-3.2832,0,0,-3.2423,-3.2452,-3.2473,-3.2527,-3.2551,-3.2587,-3.2576,-3.2614,-3.2641,-3.2645,-3.2691,-3.2709,-3.2743,-3.2793,-3.2816,-3.2808,-3.2888,-3.2867,-3.2869,-3.2872,-3.2899,-3.2906,-3.2912,-3.2834,-3.2834,-3.2834,0,0,-3.2465,-3.2491,-3.2531,-3.2556,-3.2593,-3.261,-3.2619,-3.2657,-3.2669,-3.2717,-3.272,-3.2752,-3.2811,-3.2834,-3.2854,-3.2907,-3.2907,-3.2917,-3.2939,-3.2966,-3.2972,-3.2976,-3.2994,-3.3001,-3.2922,-3.2922,-3.2922,0,-3.2477,-3.2532,-3.255,-3.2589,-3.2612,-3.2619,-3.2658,-3.2681,-3.2727,-3.2742,-3.2734,-3.2808,-3.2831,-3.2887,-3.29,-3.2916,-3.2926,-3.2912,-3.297,-3.2975,-3.2979,-3.2997,-3.3004,-3.2923,-3.2923,-3.2923,-3.2923,0,-3.2544,-3.2583,-3.261,-3.2656,-3.2682,-3.272,-3.2743,-3.2767,-3.2774,-3.2791,-3.2839,-3.2868,-3.2907,-3.2921,-3.2928,-3.2977,-3.2972,-3.2967,-3.295,-3.2987,-3.3003,-3.301,-3.2924,-3.2924,-3.2924,-3.2923,0,0,-3.2587,-3.2644,-3.2653,-3.2674,-3.2717,-3.2746,-3.2785,-3.2825,-3.2845,-3.2877,-3.2909,-3.2959,-3.2955,-3.2978,-3.2987,-3.3012,-3.3051,-3.3003,-3.3004,-3.301,-3.3107,-3.311,-3.3117,-3.3052,-3.3053,-3.3055,-3.3104,0,-3.2634,-3.2705,-3.2722,-3.2782,-3.2817,-3.2825,-3.2859,-3.2888,-3.2905,-3.2937,-3.2955,-3.2991,-3.2983,-3.2997,-3.3021,-3.3041,-3.307,-3.3038,-3.3081,-3.3082,-3.3071,-3.3126,-3.3129,-3.3174,-3.311,-3.3111,-3.3112,0,-3.2697,-3.2732,-3.2796,-3.2834,-3.285,-3.288,-3.2918,-3.2949,-3.2982,-3.2992,-3.3018,-3.3026,-3.3066,-3.3049,-3.3103,-3.3081,-3.31,-3.3112,-3.3114,-3.3118,-3.3098,-3.313,-3.3189,-3.3195,-3.3123,-3.3122,-3.3121,0,-3.2721,-3.2784,-3.283,-3.2848,-3.2894,-3.2915,-3.2935,-3.2967,-3.299,-3.3023,-3.3038,-3.3075,-3.3095,-3.3123,-3.314,-3.3126,-3.3193,-3.3177,-3.3202,-3.3201,-3.3214,-3.3213,-3.3275,-3.3228,-3.3228,-3.3228,-3.3228,0,-3.2771,-3.2809,-3.2842,-3.287,-3.2913,-3.2933,-3.2975,-3.2995,-3.3023,-3.3055,-3.3064,-3.3093,-3.3114,-3.3146,-3.3159,-3.3202,-3.3211,-3.322,-3.3223,-3.3219,-3.3217,-3.323,-3.3227,-3.323,-3.3229,-3.3229,-3.3229,0,-3.2804,-3.2828,-3.2879,-3.2919,-3.293,-3.296,-3.2994,-3.3021,-3.3039,-3.3079,-3.3089,-3.3117,-3.3156,-3.3176,-3.3223,-3.3232,-3.328,-3.3281,-3.3269,-3.327,-3.3292,-3.329,-3.3365,-3.3375,-3.3322,-3.3322,-3.3323,0,-3.2833,-3.2863,-3.2907,-3.293,-3.2951,-3.2987,-3.3011,-3.3031,-3.3056,-3.3096,-3.3118,-3.3158,-3.319,-3.325,-3.3274,-3.331,-3.3312,-3.3335,-3.3317,-3.3312,-3.3311,-3.3308,-3.3311,-3.3338,-3.3339,-3.3339,-3.3339,0,-3.2882,-3.2893,-3.2928,-3.2968,-3.2997,-3.3028,-3.3059,-3.3077,-3.3103,-3.313,-3.3169,-3.3195,-3.3244,-3.3282,-3.332,-3.3339,-3.3343,-3.3345,-3.3353,-3.3348,-3.3339,-3.3343,-3.3276,-3.3343,-3.3343,-3.3342,-3.3342,-3.3342,-3.2914,-3.2941,-3.2977,-3.3015,-3.3042,-3.3071,-3.3099,-3.3121,-3.3155,-3.3198,-3.3208,-3.3249,-3.3282,-3.3334,-3.3355,-3.3387,-3.3382,-3.3393,-3.3395,-3.3397,-3.3398,-3.3335,-3.3394,-3.3394,-3.3394,-3.3394,-3.3394,0,-3.2962,-3.2986,-3.3022,-3.3066,-3.3097,-3.31,-3.3135,-3.316,-3.3197,-3.3228,-3.326,-3.3306,-3.3343,-3.3371,-3.3408,-3.3429,-3.3432,-3.3438,-3.3436,-3.344,-3.34,-3.339,-3.3435,-3.3435,-3.3435,-3.3435,-3.3435,-3.3435,-3.2991,-3.3037,-3.3052,-3.3111,-3.3134,-3.3177,-3.3196,-3.3223,-3.3248,-3.3299,-3.3331,-3.3349,-3.3378,-3.3419,-3.3453,-3.346,-3.3473,-3.3479,-3.3486,-3.3448,-3.3443,-3.3439,-3.3429,-3.3482,-3.3482,-3.3523,-3.3523,-3.3524]}]]